Regional Weather Roundup
Issued by NWS

Home | Current Version | Previous Version | Text Only | Print | Product List | Glossary On
Versions: 1 2 3 4 5 6 7 8 9 10 11 12 13 14 15 16 17 18 19 20 21 22 23 24 25 26 27 28 29 30 31 32 33 34 35 36 37 38 39 40 41 42 43 44 45 46 47 48 49 50
000
ASUS43 KMKX 020400
RWRWI

WISCONSIN REGIONAL WEATHER ROUNDUP
NATIONAL WEATHER SERVICE MILWAUKEE/SULLIVAN WI
1100 PM CDT SAT AUG 01 2015

NOTE: "FAIR" INDICATES FEW OR NO CLOUDS BELOW 12,000 FEET WITH NO
SIGNIFICANT WEATHER AND/OR OBSTRUCTIONS TO VISIBILITY.

WIZ001-002-006>008-014>016-023>028-020500-
NORTHWEST WISCONSIN

CITY           SKY/WX    TMP DP  RH WIND       PRES   REMARKS
SUPERIOR ARPT  CLEAR     66  60  81 W5        29.73S
ASHLAND        CLEAR     64  57  78 SW6       29.74F
HAYWARD        MOCLDY    66  57  72 SW5       29.78F
SIREN          PTCLDY    71  60  70 S3        29.77F
CUMBERLAND     CLEAR     63  61  94 S6        29.80F
RICE LAKE      PTCLDY    67  61  79 SE5       29.81F
CHETEK         PTCLDY    66  64  92 CALM      29.80F
LADYSMITH      PTCLDY    66  59  79 S5        29.83F
EAU CLAIRE     NOT AVBL
MENOMONIE      CLEAR     68  64  88 SE5       29.80F
NEW RICHMOND   PTCLDY    70  64  81 SE3       29.79F
OSCEOLA        CLEAR     70  65  84 CALM      29.80S
$$

WIZ003>005-009-010-017-018-020500-
NORTH CENTRAL WISCONSIN

CITY           SKY/WX    TMP DP  RH WIND       PRES   REMARKS
MANITOWISH WTR CLEAR     59  57  92 CALM      29.80S
ARBOR VITAE    CLEAR     64  56  73 CALM      29.81S
WOODRUFF       CLEAR     64  56  73 CALM      29.81S
RHINELANDER    CLEAR     62  55  77 SW7       29.82F
EAGLE RIVER    CLEAR     60  52  74 SW6       29.81S
LAND O LAKES   CLEAR     60  53  78 CALM      29.81F
PHILLIPS       CLEAR     65  58  76 SW6       29.81S
TOMAHAWK       CLEAR     57  55  91 CALM      29.83F
MEDFORD        CLEAR     62  58  86 S5        29.84S
MERRILL        NOT AVBL
$$

WIZ029-030-035-036-043>047-020500-
CENTRAL WISCONSIN

CITY           SKY/WX    TMP DP  RH WIND       PRES   REMARKS
WAUSAU         CLEAR     68  57  68 SW6       29.82S
MOSINEE        CLEAR     63  59  88 S3        29.85S
MARSHFIELD     CLEAR     65  59  81 SW5       29.84F
STEVENS POINT  CLEAR     64  56  75 CALM      29.85S
WAUPACA        CLEAR     66  58  75 CALM      29.84S
WAUTOMA        NOT AVBL
WISC RAPIDS    CLEAR     67  58  72 CALM      29.85F
CAMP DOUGLAS   NOT AVBL
$$

WIZ011>013-019>022-031-037>040-048>050-020500-
NORTHEAST WISCONSIN

CITY           SKY/WX    TMP DP  RH WIND       PRES   REMARKS
ANTIGO         CLEAR     61  55  82 SW6       29.84S
SHAWANO        CLEAR     69  55  60 CALM      29.83S
OCONTO         PTCLDY    63  57  80 CALM      29.81S
STURGEON BAY   CLEAR     66  54  63 S6        29.83F
GREEN BAY      CLEAR     63  56  78 S5        29.82F
MANITOWOC      NOT AVBL
APPLETON       PTCLDY    70  52  52 VRB5      29.84F
CLINTONVILLE   CLEAR     63  55  77 CALM      29.82F
OSHKOSH        CLEAR     68  58  70 SW3       29.83F
$$

WIZ032>034-041-042-053>061-020500-
SOUTHWEST WISCONSIN

CITY           SKY/WX    TMP DP  RH WIND       PRES   REMARKS
LA CROSSE      CLEAR     77  67  71 S8        29.83R
SPARTA         CLEAR     65  60  85 CALM      29.85S
VIROQUA        CLEAR     70  65  84 S8        29.88S
BOSCOBEL       CLEAR     69  66  90 CALM      29.86F
PRAIRIE DU CHI CLEAR     76  68  76 S3        29.87S
PLATTEVILLE    CLEAR     71  69  94 S7        29.90S
$$

WIZ056-057-062-063-064-067-068-020500-
SOUTH CENTRAL WISCONSIN

CITY           SKY/WX    TMP DP  RH WIND       PRES   REMARKS
REEDSBURG      CLEAR     71  63  77 CALM      29.85F
BARABOO/DELLS  CLEAR     67  60  78 CALM      29.86S
LONE ROCK      NOT AVBL
MINERAL POINT  CLEAR     73  68  83 SW6       29.90S
MADISON        PTCLDY    74  63  68 SW3       29.86F
MIDDLETON      CLEAR     68  62  83 CALM      29.87F
WATERTOWN      CLEAR     65  65 100 CALM      29.86F
MONROE         CLEAR     72  68  88 SW9       29.90S
JANESVILLE     CLEAR     70  68  94 SW5       29.89S
$$

WIZ051-052-058>065-066-070>072-020500-
SOUTHEAST WISCONSIN

CITY           SKY/WX    TMP DP  RH WIND       PRES   REMARKS
MILWAUKEE      CLEAR     71  61  70 S7        29.86F
WAUKESHA       CLEAR     68  57  68 SW5       29.88F
MILWAUKEE/TIMM CLEAR     70  57  64 S6        29.87F
RACINE         CLEAR     69  64  84 S3        29.88F
BURLINGTON     CLEAR     63  60  90 S3        29.88F
KENOSHA        CLEAR     69  65  86 SW8       29.88F
FOND DU LAC    CLEAR     69  60  73 SW6       29.84F
SHEBOYGAN      CLEAR     63  58  83 CALM      29.84F
WEST BEND      CLEAR     66  59  77 CALM      29.86F
JUNEAU         CLEAR     65  61  86 CALM      29.87F
$$

LSZ147-162-020500-
LAKE SUPERIOR

STATION/POSITION TIME  TEMP    WIND        PRES    WAVE
                       AIR SEA DIR/SP/G            HT/PER
                 (UTC) (F)     (DEG/KT/KT) (MB)    (FT/S)
W MID LAKE BUOY  0250   62 56  210/ 10/ 10 1005.7R   1/ 3
DEVILS ISLAND    0300   71     220/ 13/ 14 1006.0F
PORT WING        0300   71     190/  6/  9 1007.1S
SAXON HARBOR     0300   67                 1006.8F
$$

LMZ867-665-643>646-020500-
LAKE MICHIGAN

STATION/POSITION TIME  TEMP    WIND        PRES    WAVE
                       AIR SEA DIR/SP/G            HT/PER
                 (UTC) (F)     (DEG/KT/KT) (MB)    (FT/S)
CHAMBERS ISLAND  0300   70     190/  3/  6 1009.1S
N MID LAKE BUOY  0250   70 69  210/ 10/ 12 1008.4F   2/ 4
NORTHPORT PIER   0300   69     180/  3/  5 1008.8F
SISTER BAY       0215   72     170/  9/ 11   N/A
ALGOMA LAKESHORE 0212          230/  6/  7   N/A
KEWAUNEE LAKESHO 0300   65     170/  4/  4 1009.7F
SHEBOYGAN LAKESH 0300   70     180/ 11/ 12 1010.9F
PORT WASHINGTON  0300   65     210/  4/  8 1011.9S
ATWATER BUOY     0300   70 64  180/  8/  8 1012.8F
MILWAUKEE LAKESH 0300   71     220/  3/  4   N/A
KENOSHA   LAKESH 0300   74     230/  4/  5 1011.5S
$$

TC  - TEMPERATURE IN CELSIUS
VSB - VISIBILITY IN STATUTE MILES
WCI - WIND CHILL INDEX
HX  - HEAT INDEX



USA.gov is the U.S. government's official web portal to all federal, state and local government web resources and services.